Time,TemperatureF,DewpointF,PressureIn,WindDirection,WindDirectionDegrees,WindSpeedMPH,WindSpeedGustMPH,Humidity,HourlyPrecipIn,Conditions,Clouds,dailyrainin,SoftwareType,DateUTC
2013-01-25 00:25:00,17.3,7.0,30.51,NE,51,3.0,3.0,65,0.00,,,0.00,weatherlink.com 1.10,2013-01-25 05:25:00,
2013-01-25 00:40:00,17.4,8.0,30.51,NE,41,0.0,2.0,66,0.00,,,0.00,weatherlink.com 1.10,2013-01-25 05:40:00,
2013-01-25 00:55:00,17.5,8.0,30.51,North,359,0.0,2.0,65,0.00,,,0.00,weatherlink.com 1.10,2013-01-25 05:55:00,
2013-01-25 01:11:00,17.5,7.0,30.50,ENE,78,0.0,1.0,64,0.00,,,0.00,weatherlink.com 1.10,2013-01-25 06:11:00,
2013-01-25 01:26:00,17.5,7.0,30.50,SW,231,0.0,3.0,64,0.00,,,0.00,weatherlink.com 1.10,2013-01-25 06:26:00,
2013-01-25 01:41:00,17.5,8.0,30.50,NE,43,0.0,2.0,65,0.00,,,0.00,weatherlink.com 1.10,2013-01-25 06:41:00,
2013-01-25 01:56:00,17.6,7.0,30.49,SE,132,0.0,1.0,64,0.00,,,0.00,weatherlink.com 1.10,2013-01-25 06:56:00,
2013-01-25 02:11:00,17.7,7.0,30.49,NNE,27,0.0,1.0,64,0.00,,,0.00,weatherlink.com 1.10,2013-01-25 07:11:00,
2013-01-25 02:26:00,17.7,8.0,30.46,NNE,25,0.0,2.0,65,0.00,,,0.00,weatherlink.com 1.10,2013-01-25 07:26:00,
2013-01-25 02:41:00,17.6,8.0,30.47,North,11,0.0,1.0,65,0.00,,,0.00,weatherlink.com 1.10,2013-01-25 07:41:00,
2013-01-25 02:56:00,17.6,8.0,30.45,North,11,0.0,1.0,66,0.00,,,0.00,weatherlink.com 1.10,2013-01-25 07:56:00,
2013-01-25 03:11:00,17.5,8.0,30.45,North,349,0.0,1.0,66,0.00,,,0.00,weatherlink.com 1.10,2013-01-25 08:11:00,
2013-01-25 03:27:00,17.6,8.0,30.44,North,350,0.0,1.0,66,0.00,,,0.00,weatherlink.com 1.10,2013-01-25 08:27:00,
2013-01-25 03:41:00,17.7,8.0,30.43,North,5,0.0,1.0,65,0.00,,,0.00,weatherlink.com 1.10,2013-01-25 08:41:00,
2013-01-25 03:56:00,17.9,8.0,30.44,North,5,0.0,0.0,66,0.00,,,0.00,weatherlink.com 1.10,2013-01-25 08:56:00,
2013-01-25 04:11:00,17.9,9.0,30.43,North,5,0.0,1.0,67,0.00,,,0.00,weatherlink.com 1.10,2013-01-25 09:11:00,
2013-01-25 04:26:00,17.9,8.0,30.43,North,5,0.0,1.0,66,0.00,,,0.00,weatherlink.com 1.10,2013-01-25 09:26:00,
2013-01-25 04:41:00,18.0,9.0,30.41,East,94,0.0,1.0,68,0.00,,,0.00,weatherlink.com 1.10,2013-01-25 09:41:00,
2013-01-25 04:57:00,18.2,9.0,30.41,East,95,0.0,0.0,68,0.00,,,0.00,weatherlink.com 1.10,2013-01-25 09:57:00,
2013-01-25 05:12:00,18.5,10.0,30.40,NNW,348,0.0,1.0,68,0.00,,,0.00,weatherlink.com 1.10,2013-01-25 10:12:00,
2013-01-25 05:27:00,18.7,10.0,30.39,ENE,65,0.0,3.0,68,0.00,,,0.00,weatherlink.com 1.10,2013-01-25 10:27:00,
2013-01-25 05:42:00,19.1,10.0,30.38,NNE,25,1.0,1.0,67,0.00,,,0.00,weatherlink.com 1.10,2013-01-25 10:42:00,
2013-01-25 05:57:00,19.5,9.0,30.37,NNE,24,1.0,3.0,64,0.00,,,0.00,weatherlink.com 1.10,2013-01-25 10:57:00,
2013-01-25 06:12:00,19.8,10.0,30.38,NNE,17,0.0,1.0,65,0.00,,,0.00,weatherlink.com 1.10,2013-01-25 11:12:00,
2013-01-25 06:42:00,20.6,11.0,30.35,North,350,2.0,3.0,67,0.00,,,0.00,weatherlink.com 1.10,2013-01-25 11:42:00,
2013-01-25 06:57:00,20.9,11.0,30.34,SSE,148,0.0,1.0,66,0.00,,,0.00,weatherlink.com 1.10,2013-01-25 11:57:00,
2013-01-25 07:12:00,21.3,11.0,30.36,SSW,205,0.0,1.0,65,0.00,,,0.00,weatherlink.com 1.10,2013-01-25 12:12:00,
2013-01-25 07:27:00,21.7,11.0,30.34,SSW,204,0.0,1.0,63,0.00,,,0.00,weatherlink.com 1.10,2013-01-25 12:27:00,
2013-01-25 07:57:00,22.5,13.0,30.35,South,170,0.0,1.0,67,0.00,,,0.00,weatherlink.com 1.10,2013-01-25 12:57:00,
2013-01-25 08:12:00,22.2,14.0,30.34,SSE,158,0.0,1.0,71,0.00,,,0.00,weatherlink.com 1.10,2013-01-25 13:12:00,
2013-01-25 08:27:00,22.2,16.0,30.34,NNE,18,0.0,2.0,77,0.00,,,0.00,weatherlink.com 1.10,2013-01-25 13:27:00,
2013-01-25 08:42:00,22.2,17.0,30.32,SE,136,2.0,4.0,80,0.00,,,0.00,weatherlink.com 1.10,2013-01-25 13:42:00,
2013-01-25 08:57:00,21.7,18.0,30.32,North,5,1.0,1.0,84,0.00,,,0.00,weatherlink.com 1.10,2013-01-25 13:57:00,
2013-01-25 09:12:00,21.7,18.0,30.32,NE,34,0.0,1.0,85,0.00,,,0.00,weatherlink.com 1.10,2013-01-25 14:12:00,
2013-01-25 09:27:00,22.2,19.0,30.30,NNW,340,1.0,2.0,88,0.00,,,0.00,weatherlink.com 1.10,2013-01-25 14:27:00,
2013-01-25 09:43:00,22.8,20.0,30.29,ENE,77,0.0,2.0,88,0.00,,,0.00,weatherlink.com 1.10,2013-01-25 14:43:00,
2013-01-25 09:57:00,23.5,21.0,30.29,NNW,339,1.0,2.0,89,0.00,,,0.00,weatherlink.com 1.10,2013-01-25 14:57:00,
2013-01-25 10:13:00,24.6,22.0,30.28,SSE,147,1.0,3.0,89,0.00,,,0.00,weatherlink.com 1.10,2013-01-25 15:13:00,
2013-01-25 10:28:00,25.3,23.0,30.27,SSE,148,1.0,2.0,89,0.00,,,0.00,weatherlink.com 1.10,2013-01-25 15:28:00,
2013-01-25 10:43:00,25.8,23.0,30.26,SE,132,0.0,1.0,89,0.00,,,0.00,weatherlink.com 1.10,2013-01-25 15:43:00,
2013-01-25 10:58:00,26.2,24.0,30.27,SSW,210,0.0,5.0,90,0.00,,,0.00,weatherlink.com 1.10,2013-01-25 15:58:00,
2013-01-25 11:13:00,26.8,25.0,30.27,SSE,162,0.0,3.0,91,0.00,,,0.00,weatherlink.com 1.10,2013-01-25 16:13:00,
2013-01-25 11:28:00,27.4,25.0,30.26,SSE,152,1.0,3.0,91,0.00,,,0.00,weatherlink.com 1.10,2013-01-25 16:28:00,
2013-01-25 11:58:00,28.0,26.0,30.23,SW,226,1.0,3.0,92,0.00,,,0.00,weatherlink.com 1.10,2013-01-25 16:58:00,
2013-01-25 12:13:00,28.1,26.0,30.23,SSW,198,0.0,2.0,91,0.00,,,0.00,weatherlink.com 1.10,2013-01-25 17:13:00,
2013-01-25 12:28:00,28.4,26.0,30.22,SSW,208,0.0,1.0,92,0.00,,,0.00,weatherlink.com 1.10,2013-01-25 17:28:00,
2013-01-25 12:43:00,28.7,26.0,30.21,SSE,165,0.0,0.0,91,0.00,,,0.00,weatherlink.com 1.10,2013-01-25 17:43:00,
2013-01-25 12:59:00,28.6,27.0,30.20,NNE,33,1.0,1.0,92,0.00,,,0.00,weatherlink.com 1.10,2013-01-25 17:59:00,
2013-01-25 13:14:00,28.5,27.0,30.20,NNE,23,2.0,2.0,93,0.00,,,0.00,weatherlink.com 1.10,2013-01-25 18:14:00,
2013-01-25 13:29:00,28.5,27.0,30.19,NNE,32,1.0,1.0,94,0.00,,,0.00,weatherlink.com 1.10,2013-01-25 18:29:00,
2013-01-25 13:44:00,28.7,27.0,30.18,NNE,30,1.0,2.0,94,0.00,,,0.00,weatherlink.com 1.10,2013-01-25 18:44:00,
2013-01-25 14:15:00,28.9,28.0,30.18,NE,39,0.0,1.0,95,0.00,,,0.00,weatherlink.com 1.10,2013-01-25 19:15:00,
2013-01-25 14:29:00,29.3,28.0,30.17,South,169,0.0,1.0,95,0.00,,,0.00,weatherlink.com 1.10,2013-01-25 19:29:00,
2013-01-25 14:44:00,29.6,28.0,30.17,ENE,68,0.0,1.0,95,0.00,,,0.00,weatherlink.com 1.10,2013-01-25 19:44:00,
2013-01-25 14:59:00,30.1,29.0,30.17,South,191,0.0,1.0,95,0.00,,,0.00,weatherlink.com 1.10,2013-01-25 19:59:00,
2013-01-25 15:14:00,30.3,29.0,30.18,North,11,0.0,1.0,95,0.00,,,0.00,weatherlink.com 1.10,2013-01-25 20:14:00,
2013-01-25 15:29:00,30.6,29.0,30.18,SSW,205,0.0,1.0,95,0.00,,,0.00,weatherlink.com 1.10,2013-01-25 20:29:00,
2013-01-25 15:44:00,30.9,30.0,30.17,SSW,198,0.0,2.0,95,0.00,,,0.00,weatherlink.com 1.10,2013-01-25 20:44:00,
2013-01-25 16:14:00,31.3,30.0,30.18,SE,140,1.0,2.0,96,0.00,,,0.00,weatherlink.com 1.10,2013-01-25 21:14:00,
2013-01-25 16:29:00,31.2,30.0,30.17,SSW,211,0.0,3.0,95,0.00,,,0.00,weatherlink.com 1.10,2013-01-25 21:29:00,
2013-01-25 16:45:00,31.4,30.0,30.17,SSW,200,0.0,2.0,96,0.00,,,0.00,weatherlink.com 1.10,2013-01-25 21:45:00,
2013-01-25 16:59:00,31.6,31.0,30.18,West,263,0.0,1.0,96,0.00,,,0.00,weatherlink.com 1.10,2013-01-25 21:59:00,
2013-01-25 17:14:00,31.7,31.0,30.18,ESE,117,0.0,0.0,96,0.00,,,0.00,weatherlink.com 1.10,2013-01-25 22:14:00,
2013-01-25 17:29:00,31.8,31.0,30.19,ESE,117,0.0,0.0,96,0.00,,,0.00,weatherlink.com 1.10,2013-01-25 22:29:00,
2013-01-25 17:44:00,31.7,31.0,30.19,SSE,159,0.0,1.0,96,0.00,,,0.00,weatherlink.com 1.10,2013-01-25 22:44:00,
2013-01-25 18:14:00,31.7,31.0,30.20,SSE,156,0.0,1.0,96,0.00,,,0.00,weatherlink.com 1.10,2013-01-25 23:14:00,
2013-01-25 18:29:00,31.7,31.0,30.20,SSE,157,0.0,1.0,96,0.00,,,0.00,weatherlink.com 1.10,2013-01-25 23:29:00,
2013-01-25 18:44:00,31.7,31.0,30.21,SSW,205,0.0,3.0,96,0.00,,,0.00,weatherlink.com 1.10,2013-01-25 23:44:00,
2013-01-25 18:59:00,31.7,31.0,30.21,South,171,0.0,1.0,96,0.00,,,0.00,weatherlink.com 1.10,2013-01-25 23:59:00,
2013-01-25 19:14:00,31.9,31.0,30.21,SE,145,0.0,1.0,96,0.00,,,0.00,weatherlink.com 1.10,2013-01-26 00:14:00,
2013-01-25 19:30:00,32.0,31.0,30.21,SSE,153,1.0,1.0,97,0.00,,,0.00,weatherlink.com 1.10,2013-01-26 00:30:00,
2013-01-25 19:44:00,32.1,31.0,30.22,SSE,162,0.0,1.0,96,0.00,,,0.00,weatherlink.com 1.10,2013-01-26 00:44:00,
2013-01-25 19:59:00,32.1,31.0,30.22,SSE,159,0.0,0.0,97,0.00,,,0.00,weatherlink.com 1.10,2013-01-26 00:59:00,
2013-01-25 20:29:00,32.1,31.0,30.23,SSE,148,0.0,1.0,97,0.00,,,0.00,weatherlink.com 1.10,2013-01-26 01:29:00,
2013-01-25 20:44:00,32.1,31.0,30.23,South,169,0.0,3.0,97,0.00,,,0.00,weatherlink.com 1.10,2013-01-26 01:44:00,
2013-01-25 20:59:00,32.1,31.0,30.23,SSE,153,0.0,2.0,97,0.00,,,0.00,weatherlink.com 1.10,2013-01-26 01:59:00,
2013-01-25 21:13:00,32.1,31.0,30.23,SSE,162,0.0,1.0,97,0.00,,,0.00,weatherlink.com 1.10,2013-01-26 02:13:00,
2013-01-25 21:29:00,32.1,31.0,30.24,SW,227,0.0,1.0,97,0.00,,,0.00,weatherlink.com 1.10,2013-01-26 02:29:00,
2013-01-25 21:44:00,32.1,31.0,30.24,WSW,245,1.0,2.0,97,0.00,,,0.00,weatherlink.com 1.10,2013-01-26 02:44:00,
2013-01-25 21:59:00,32.1,31.0,30.25,SSW,207,0.0,3.0,97,0.00,,,0.00,weatherlink.com 1.10,2013-01-26 02:59:00,
2013-01-25 22:14:00,32.1,31.0,30.25,SSW,195,1.0,3.0,96,0.00,,,0.00,weatherlink.com 1.10,2013-01-26 03:14:00,
2013-01-25 22:30:00,32.1,31.0,30.25,SSW,208,0.0,2.0,96,0.00,,,0.00,weatherlink.com 1.10,2013-01-26 03:30:00,
2013-01-25 22:43:00,32.1,31.0,30.25,WNW,288,1.0,4.0,96,0.00,,,0.00,weatherlink.com 1.10,2013-01-26 03:43:00,
2013-01-25 23:00:00,32.0,31.0,30.26,SW,222,1.0,3.0,96,0.00,,,0.00,weatherlink.com 1.10,2013-01-26 04:00:00,
2013-01-25 23:15:00,31.9,31.0,30.27,SW,221,0.0,7.0,96,0.00,,,0.00,weatherlink.com 1.10,2013-01-26 04:15:00,
2013-01-25 23:28:00,31.9,31.0,30.27,SSW,211,1.0,2.0,95,0.00,,,0.00,weatherlink.com 1.10,2013-01-26 04:28:00,
2013-01-25 23:45:00,31.7,31.0,30.28,South,190,0.0,6.0,95,0.00,,,0.00,weatherlink.com 1.10,2013-01-26 04:45:00,
2013-01-25 23:59:00,31.6,30.0,30.27,SSE,167,0.0,2.0,95,0.00,,,0.00,weatherlink.com 1.10,2013-01-26 04:59:00,